This demonstration page uses our WeatherBlox Daily Observations layout. Learn more.

Left ArrowRight Arrow

Hourly Observations for February 19, 2020

Temp ( °F °C ) Dew Point ( °F °C ) Humidity (%) Winds ( mph kmh ) Pressure ( in mb ) Visibility ( mi km ) Precip ( " mm )
12:56 am 00:56 Clear 19 -7.2 17 -8.3 92 92 NNE 10 17 30.49 1033 10 16 0.00 0.00
1:52 am 01:52 Mostly Cloudy 18 -8 16 -9 93 93 N 9 15 30.61 1036 10 16 0.00 0.00
1:56 am 01:56 Mostly Cloudy 17 -8.3 16 -8.9 95 95 NNE 7 11 30.51 1033 10 16 0.00 0.00
2:13 am 02:13 Cloudy 19 -7 18 -8 93 93 NNE 12 19 30.61 1036 10 16 0.00 0.00
2:56 am 02:56 Cloudy 20 -6.7 18 -7.8 92 92 NE 15 24 30.51 1033 10 16 0.00 0.00
3:56 am 03:56 Cloudy 20 -6.7 18 -7.8 92 92 NE 14 22 30.49 1033 10 16 0.00 0.00
4:56 am 04:56 Cloudy 21 -6.1 19 -7.2 92 92 NE 14 22 30.50 1033 10 16 0.00 0.00
5:56 am 05:56 Cloudy 19 -7.2 17 -8.3 92 92 NNE 13 20 30.55 1034 10 16 0.00 0.00
6:56 am 06:56 Cloudy 18 -7.8 16 -8.9 92 92 NE 14 22 30.55 1035 10 16 0.00 0.00
7:47 am 07:47 Cloudy 18 -8 16 -9 93 93 NE 15 24 30.64 1037 8 13 0.00 0.00
7:56 am 07:56 Cloudy 17 -8.3 16 -8.9 95 95 NE 14 22 30.57 1035 7 11 0.00 0.00
8:56 am 08:56 Cloudy 17 -8.3 16 -8.9 95 95 NE 15 24 30.59 1036 8 13 0.00 0.00
9:56 am 09:56 Cloudy with Light Snow 18 -7.8 16 -8.9 92 92 ENE 15 24 30.60 1036 7 11 0.00 0.00
10:56 am 10:56 Cloudy with Light Snow 18 -7.8 17 -8.3 96 96 ENE 16 26 30.62 1037 6 10 0.00 0.00
11:56 am 11:56 Cloudy with Light Snow 19 -7.2 17 -8.3 92 92 NE 16 26 30.63 1037 3 4 0.00 0.00
12:14 pm 12:14 Cloudy with Light Snow 19 -7 18 -8 93 93 ENE 15 24 30.69 1039 3 5 0.00 0.00
12:56 pm 12:56 Cloudy with Light Snow 21 -6.1 18 -7.8 88 88 NE 16 26 30.61 1037 4 6 0.00 0.00
1:21 pm 13:21 Cloudy with Light Snow 19 -7 18 -8 93 93 NE 16 26 30.67 1038 8 13 0.00 0.00
1:56 pm 13:56 Cloudy with Light Snow 21 -6.1 16 -8.9 81 81 NE 18 30 30.60 1036 3 5 0.00 0.00
2:56 pm 14:56 Cloudy with Light Snow 20 -6.7 15 -9.4 81 81 NE 17 28 30.61 1037 9 14 0.00 0.00
3:42 pm 15:42 Cloudy with Light Snow 19 -7 16 -9 86 86 NE 18 30 30.67 1038 3 4 0.00 0.00
3:53 pm 15:53 Cloudy with Light Snow 19 -7 16 -9 86 86 NNE 18 30 30.68 1039 2 3 0.00 0.00
3:54 pm 15:54 Cloudy with Light Snow 19 -7 16 -9 86 86 NNE 18 30 30.67 1038 2 3 0.00 0.00
3:56 pm 15:56 Cloudy with Light Snow 19 -7.2 15 -9.4 84 84 NNE 18 30 30.61 1037 2 3 0.00 0.00
4:15 pm 16:15 Windy with Snow Likely 19 -7 16 -9 86 86 NE 20 31 30.68 1039 2 3 0.00 0.00
4:29 pm 16:29 Cloudy with Light Snow 18 -8 16 -9 93 93 NE 16 26 30.70 1039 1 2 0.00 0.00
4:36 pm 16:36 Cloudy with Light Snow 18 -8 16 -9 93 93 NE 18 30 30.70 1039 1 2 0.00 0.00
4:56 pm 16:56 Windy with Snow Likely 17 -8.3 14 -10 88 88 NNE 20 31 30.63 1037 3 4 0.00 0.00
5:24 pm 17:24 Windy with Snow Likely 16 -9 12 -11 86 86 NNE 22 35 30.72 1040 3 5 0.00 0.00
5:35 pm 17:35 Cloudy with Light Snow 16 -9 12 -11 86 86 NNE 18 30 30.73 1040 2 3 0.00 0.00
5:49 pm 17:49 Cloudy with Light Snow 16 -9 12 -11 86 86 NNE 18 30 30.73 1040 1 2 0.00 0.00
5:56 pm 17:56 Cloudy with Light Snow 14 -10 11 -11.7 88 88 NNE 17 28 30.66 1038 2 2 0.00 0.00
6:11 pm 18:11 Cloudy with Light Snow 14 -10 10 -12 85 85 NNE 18 30 30.75 1041 3 5 0.00 0.00
6:24 pm 18:24 Cloudy with Light Snow 14 -10 10 -12 85 85 NNE 17 28 30.76 1041 3 5 0.00 0.00
6:34 pm 18:34 Cloudy with Light Snow 14 -10 10 -12 85 85 NNE 18 30 30.76 1041 2 3 0.00 0.00
6:48 pm 18:48 Windy with Snow Likely 12 -11 10 -12 92 92 NNE 20 31 30.77 1042 3 5 0.00 0.00
6:56 pm 18:56 Cloudy with Light Snow 13 -10.6 10 -12.2 88 88 NNE 17 28 30.68 1039 4 6 0.00 0.00
7:14 pm 19:14 Cloudy with Light Snow 12 -11 10 -12 92 92 NE 16 26 30.78 1042 3 4 0.00 0.00
7:36 pm 19:36 Cloudy with Light Snow 12 -11 10 -12 92 92 NNE 16 26 30.79 1043 3 5 0.00 0.00
7:45 pm 19:45 Cloudy with Light Snow 12 -11 9 -13 85 85 NNE 15 24 30.79 1043 4 6 0.00 0.00
7:56 pm 19:56 Cloudy with Light Snow 13 -10.6 9 -12.8 84 84 NNE 14 22 30.71 1040 5 8 0.00 0.00
8:56 pm 20:56 Cloudy with Light Snow 12 -11.1 8 -13.3 84 84 NNE 12 19 30.72 1040 9 14 0.00 0.00
9:56 pm 21:56 Partly Cloudy 11 -11.7 8 -13.3 88 88 N 10 17 30.75 1041 10 16 0.00 0.00
10:56 pm 22:56 Mostly Cloudy 9 -12.8 6 -14.4 88 88 N 14 22 30.77 1042 10 16 0.00 0.00
11:56 pm 23:56 Clear 8 -13.3 5 -15 87 87 N 8 13 30.80 1043 10 16 0.00 0.00

Powered by AerisWeather